GW2276 Weather Reports


time (UTC)temp
F
wind
direction
speed
knots
gust
knots
rain 1hr
in
rain 24hr
in
rain mn
in
humidity
%
barometer
mb
20260504050536 50 167 0.0 4.3 0.00 0.00 0.00 53 1009.0
20260504045536 50 174 0.9 4.3 0.00 0.00 0.00 53 1009.0
20260504045035 50 160 0.9 2.6 0.00 0.00 0.00 54 1009.0
20260504044557 51 0 0.9 1.7 0.00 0.00 0.00 51 1009.1
20260504044037 51 167 0.0 4.3 0.00 0.00 0.00 51 1009.2
20260504043554 51 0 0.0 4.3 0.00 0.00 0.00 51 1009.1
20260504043043 52 157 0.9 4.3 0.00 0.00 0.00 49 1009.2
20260504042537 52 145 0.9 6.1 0.00 0.00 0.00 50 1009.2
20260504042038 52 153 0.9 6.1 0.00 0.00 0.00 49 1009.2
20260504041541 52 169 1.7 3.5 0.00 0.00 0.00 49 1009.1
20260504041036 52 0 0.9 4.3 0.00 0.00 0.00 49 1009.2
20260504040537 52 169 0.0 4.3 0.00 0.00 0.00 50 1009.2
20260504040045 51 139 0.9 4.3 0.00 0.00 0.00 50 1009.2
20260504035540 51 176 0.9 4.3 0.00 0.00 0.00 51 1009.3
20260504035036 51 143 0.0 2.6 0.00 0.00 0.00 52 1009.2
20260504034600 51 274 0.0 1.7 0.00 0.00 0.00 53 1009.3
20260504034036 51 0 0.0 1.7 0.00 0.00 0.00 52 1009.2
20260504033536 52 179 0.0 1.7 0.00 0.00 0.00 52 1009.2
20260504033044 52 0 0.0 2.6 0.00 0.00 0.00 52 1009.2
20260504032536 52 0 0.0 2.6 0.00 0.00 0.00 49 1009.3
20260504032037 52 153 0.0 3.5 0.00 0.00 0.00 50 1009.4
20260504031542 52 148 0.9 3.5 0.00 0.00 0.00 51 1009.5
20260504031035 52 120 0.0 0.9 0.00 0.00 0.00 50 1009.6
20260504030535 52 155 0.0 1.7 0.00 0.00 0.00 50 1009.6
20260504030044 52 0 0.0 2.6 0.00 0.00 0.00 48 1009.5
20260504025535 53 179 0.9 2.6 0.00 0.00 0.00 46 1009.5
20260504025036 53 155 0.0 1.7 0.00 0.00 0.00 46 1009.6
20260504024545 53 177 0.0 1.7 0.00 0.00 0.00 45 1009.7
20260504024037 53 149 0.9 1.7 0.00 0.00 0.00 44 1009.7
20260504023536 53 198 0.0 1.7 0.00 0.00 0.00 45 1009.6
20260504023040 54 195 0.9 1.7 0.00 0.00 0.00 43 1009.7
20260504022536 54 0 0.0 1.7 0.00 0.00 0.00 43 1009.7
20260504022037 54 0 0.0 2.6 0.00 0.00 0.00 44 1009.8
20260504021543 54 247 0.9 2.6 0.00 0.00 0.00 42 1009.8
20260504021037 54 0 0.0 1.7 0.00 0.00 0.00 43 1009.8
20260504020535 54 300 0.0 2.6 0.00 0.00 0.00 43 1009.8
20260504020042 55 266 0.9 2.6 0.00 0.00 0.00 41 1009.9
20260504015536 55 236 0.9 4.3 0.00 0.00 0.00 41 1009.9
20260504015036 55 281 0.9 4.3 0.00 0.00 0.00 41 1010.0
20260504014553 55 252 0.9 4.3 0.00 0.00 0.00 41 1010.0
20260504014036 55 205 0.9 4.3 0.00 0.00 0.00 41 1010.0
20260504013536 55 274 1.7 4.3 0.00 0.00 0.00 42 1010.1
20260504013047 55 286 1.7 4.3 0.00 0.00 0.00 41 1010.0
20260504012537 55 252 1.7 9.6 0.00 0.00 0.00 41 1010.0
20260504012036 55 233 1.7 9.6 0.00 0.00 0.00 40 1010.0
20260504011545 55 186 2.6 9.6 0.00 0.00 0.00 41 1009.9
20260504011035 55 205 0.9 5.2 0.00 0.00 0.00 41 1009.9
20260504010537 55 264 2.6 6.1 0.00 0.00 0.00 40 1009.9
20260504010045 55 211 1.7 7.0 0.00 0.00 0.00 40 1009.8
20260504005536 55 261 1.7 7.0 0.00 0.00 0.00 41 1009.8
20260504005036 55 198 2.6 11.3 0.00 0.00 0.00 40 1009.8
20260504004543 55 243 6.1 11.3 0.00 0.00 0.00 40 1009.8
20260504004036 55 293 6.1 14.8 0.00 0.00 0.00 38 1009.9
20260504003536 56 167 5.2 14.8 0.00 0.00 0.00 38 1009.8
20260504003052 55 243 4.3 8.7 0.00 0.00 0.00 39 1009.8
20260504002536 55 277 3.5 8.7 0.00 0.00 0.00 40 1009.7
20260504002035 55 261 1.7 8.7 0.00 0.00 0.00 41 1009.6
20260504001542 55 244 2.6 8.7 0.00 0.00 0.00 40 1009.5
20260504001037 55 286 2.6 6.1 0.00 0.00 0.00 40 1009.2
20260504000536 55 297 2.6 6.1 0.00 0.00 0.00 41 1009.1
20260504000046 55 261 3.5 6.1 0.00 0.00 0.00 40 1009.1
20260503235538 55 250 0.0 3.5 0.00 0.00 0.00 39 1009.1
20260503235036 55 271 0.9 4.3 0.00 0.00 0.00 38 1008.9
20260503234548 55 164 0.0 4.3 0.00 0.00 0.00 39 1008.9
20260503234036 55 184 1.7 4.3 0.00 0.00 0.00 39 1008.9
20260503233536 56 238 1.7 4.3 0.00 0.00 0.00 39 1008.8
20260503233042 56 323 1.7 7.8 0.00 0.00 0.00 39 1008.9
20260503232535 56 266 2.6 8.7 0.00 0.00 0.00 38 1008.8
20260503232035 56 197 4.3 12.2 0.00 0.00 0.00 39 1008.9
20260503231544 56 259 5.2 14.8 0.00 0.00 0.00 38 1008.9
20260503231036 56 333 7.0 14.8 0.00 0.00 0.00 38 1009.1
20260503230537 56 307 6.1 14.8 0.00 0.00 0.00 38 1009.1
20260503230044 56 229 5.2 13.0 0.00 0.00 0.00 40 1009.0
20260503225535 56 322 5.2 13.0 0.00 0.00 0.00 40 1009.0
20260503225037 55 278 5.2 12.2 0.00 0.00 0.00 39 1008.8
20260503224546 55 341 0.9 3.5 0.00 0.00 0.00 44 1008.9
20260503224036 56 0 0.0 5.2 0.00 0.00 0.00 45 1008.7
20260503223536 56 282 1.7 5.2 0.00 0.00 0.00 41 1008.8
20260503223038 56 243 0.9 7.0 0.00 0.00 0.00 41 1008.7
20260503222535 56 232 0.9 7.0 0.00 0.00 0.00 41 1008.7
20260503222035 56 283 1.7 5.2 0.00 0.00 0.00 41 1008.6
20260503221543 56 160 1.7 4.3 0.00 0.00 0.00 41 1008.7
20260503221038 56 163 2.6 6.1 0.00 0.00 0.00 42 1008.7
20260503220538 56 161 2.6 7.0 0.00 0.00 0.00 43 1008.8
20260503220049 56 197 1.7 7.0 0.00 0.00 0.00 41 1008.9
20260503215538 56 285 2.6 7.0 0.00 0.00 0.00 42 1008.8
20260503215039 56 266 3.5 10.4 0.00 0.00 0.00 42 1008.9
20260503214549 56 261 3.5 10.4 0.00 0.00 0.00 42 1008.9
20260503214038 56 283 4.3 10.4 0.00 0.00 0.00 42 1008.9
20260503213537 56 223 3.5 10.4 0.00 0.00 0.00 42 1008.8
20260503213056 56 245 4.3 9.6 0.00 0.00 0.00 40 1008.8
20260503212539 56 198 2.6 9.6 0.00 0.00 0.00 42 1008.9
20260503212038 56 240 4.3 9.6 0.00 0.00 0.00 42 1008.8
20260503211550 56 271 1.7 7.0 0.00 0.00 0.00 42 1008.8
20260503211038 56 254 3.5 7.0 0.00 0.00 0.00 41 1008.8
20260503210538 56 255 0.9 5.2 0.00 0.00 0.00 42 1008.9
20260503210047 56 239 0.9 3.5 0.00 0.00 0.00 41 1008.9
20260503205538 55 219 1.7 3.5 0.00 0.00 0.00 42 1009.0
20260503205038 55 274 1.7 3.5 0.00 0.00 0.00 42 1009.1
20260503204542 55 278 1.7 3.5 0.00 0.00 0.00 44 1009.2
20260503204040 54 224 0.9 4.3 0.00 0.00 0.00 43 1009.2
20260503203538 54 227 0.9 4.3 0.00 0.00 0.00 44 1009.3
20260503203041 54 216 1.7 5.2 0.00 0.00 0.00 44 1009.4
20260503202537 54 196 2.6 6.1 0.00 0.00 0.00 44 1009.5
20260503202037 54 225 2.6 6.1 0.00 0.00 0.00 43 1009.5
20260503201546 54 264 3.5 7.0 0.00 0.00 0.00 45 1009.6
20260503201038 54 298 3.5 7.0 0.00 0.00 0.00 44 1009.6
20260503200542 54 281 3.5 7.0 0.00 0.00 0.00 43 1009.7
20260503200050 54 292 2.6 6.1 0.00 0.00 0.00 45 1009.7
20260503195538 54 286 2.6 7.0 0.00 0.00 0.00 46 1009.8
20260503195038 54 302 2.6 8.7 0.00 0.00 0.00 45 1009.9
20260503194549 54 291 2.6 8.7 0.00 0.00 0.00 47 1009.9
20260503194038 53 175 2.6 6.1 0.00 0.00 0.00 46 1009.9
20260503193538 53 234 2.6 9.6 0.00 0.00 0.00 45 1010.0
20260503193047 54 262 4.3 9.6 0.00 0.00 0.00 43 1010.1
20260503192537 54 309 2.6 10.4 0.00 0.00 0.00 45 1010.0
20260503192037 54 340 4.3 10.4 0.00 0.00 0.00 43 1010.1
20260503191551 53 283 5.2 10.4 0.00 0.00 0.00 43 1010.2
20260503191035 53 266 3.5 7.8 0.00 0.00 0.00 44 1010.2
20260503190535 53 303 3.5 8.7 0.00 0.00 0.00 43 1010.3
20260503190051 53 28 3.5 12.2 0.00 0.00 0.00 42 1010.4
20260503185535 53 167 4.3 12.2 0.00 0.00 0.00 44 1010.3
20260503185035 53 281 5.2 12.2 0.00 0.00 0.00 43 1010.3
20260503184603 53 229 2.6 7.8 0.00 0.00 0.00 44 1010.2
20260503184035 52 326 3.5 7.0 0.00 0.00 0.00 45 1010.3
20260503183536 52 295 2.6 7.8 0.00 0.00 0.00 45 1010.5
20260503183056 53 295 3.5 7.8 0.00 0.00 0.00 46 1010.6
20260503182536 52 270 2.6 5.2 0.00 0.00 0.00 45 1010.4
20260503182035 53 298 1.7 8.7 0.00 0.00 0.00 44 1010.6
20260503181543 53 325 2.6 8.7 0.00 0.00 0.00 44 1010.5
20260503181036 52 220 2.6 7.0 0.00 0.00 0.00 42 1010.4
20260503180536 52 260 1.7 5.2 0.00 0.00 0.00 41 1010.5
20260503180044 53 286 2.6 5.2 0.00 0.00 0.00 39 1010.7
20260503175538 53 262 1.7 6.1 0.00 0.00 0.00 40 1010.7
20260503175035 53 297 2.6 6.1 0.00 0.00 0.00 41 1010.8
20260503174541 53 289 2.6 6.1 0.00 0.00 0.00 38 1010.7
20260503174035 53 0 0.9 5.2 0.00 0.00 0.00 40 1010.8
20260503173535 53 311 1.7 4.3 0.00 0.00 0.00 42 1011.1
20260503173056 53 30 1.7 4.3 0.00 0.00 0.00 40 1011.2
20260503172538 52 330 0.9 5.2 0.00 0.00 0.00 42 1011.1
20260503172035 52 303 1.7 5.2 0.00 0.00 0.00 41 1011.1
20260503171543 52 353 2.6 7.0 0.00 0.00 0.00 42 1011.3
20260503171036 52 13 2.6 7.0 0.00 0.00 0.00 41 1011.3
20260503170536 52 268 2.6 7.0 0.00 0.00 0.00 41 1011.3
20260503150537 48 350 2.6 9.6 0.00 0.00 0.00 49 1012.7
20260503131036 43 0 1.7 5.2 0.00 0.00 0.00 58 1013.4
20260503130536 43 303 1.7 5.2 0.00 0.00 0.00 59 1013.4
20260503110537 35 273 0.0 1.7 0.00 0.00 0.00 83 1013.2
20260503081610 37 0 0.0 0.0 0.00 0.00 0.00 80 1012.7
20260503081037 37 148 0.0 0.0 0.00 0.00 0.00 80 1012.8
20260503080537 37 0 0.0 0.0 0.00 0.00 0.00 80 1012.5
20260503072536 38 0 0.0 0.9 0.00 0.00 0.00 79 1012.4
20260503072037 37 124 0.0 0.9 0.00 0.00 0.00 78 1012.4
20260503071544 37 146 0.0 0.9 0.00 0.00 0.00 79 1012.4
20260503071035 38 0 0.0 0.9 0.00 0.00 0.00 79 1012.5
20260503070536 38 0 0.0 0.0 0.00 0.00 0.00 80 1012.4
20260503055038 39 0 0.0 1.7 0.00 0.00 0.00 73 1012.6
20260503054551 39 264 0.0 1.7 0.00 0.00 0.00 73 1012.7
20260503054036 38 0 0.0 1.7 0.00 0.00 0.00 73 1012.8
20260503053538 38 0 0.0 0.0 0.00 0.00 0.00 74 1012.8
20260503053042 39 0 0.0 0.9 0.00 0.00 0.00 73 1012.9